Погода в Большом Селе

Россия / Ярославская область     57°43′15″N   38°56′29″E
темп.,
°C
ветер,
м/с
пор.,
м/с
влажн.,
%
обл.,
%
осадки,
мм/ч
давл.,
гПа
погр.,
м
20 мая, пт
пт2000:00+1ссз38815 0.0 1016286
03:000ссз39885 0.0 1017349
06:00+1с38837 0.0 1018449
09:00+6с355610 0.0 10191230
12:00+9ссз444261 0.0 10192096
15:00+10ссз444021 0.0 10181821
18:00+9ссз35443 0.0 10181261
21:00+3с11715 0.0 101810
21 мая, сб
сб2100:00+1ссв22775 0.0 101718
03:000всв22905 0.0 101715
06:00+2всв12785 0.0 1017140
09:00+8св22535 0.0 10151266
12:00+10ссв233973 0.0 10131959
15:00+11ссв333689 0.0 10112245
18:00+10с334670 0.0 10111538
21:00+4св388259 0.1 1011203
22 мая, вс
вс2200:00+2ссв22905 0.0 101029
03:000ссв24911 0.0 101071
06:00+3св27675 0.0 1009207
09:00+8ссв46405 0.0 10081601
12:00+10с463533 0.0 10072065
15:00+11ссз573690 0.0 10062171
18:00+10ссз474589 0.0 10061598
21:00+4ссз37695 0.0 1006138
23 мая, пн
пн2300:00+2ссз287546 0.0 1007155
03:00+1сз388657 0.0 1006168
06:00+4сз4117369 0.0 1006500
09:00+8ссз6104699 0.0 10051331
12:00+9ссз6941100 0.0 10061586
15:00+11ссз61035100 0.0 10051718
18:00+9ссз4945100 0.0 10051024
21:00+6сз2261100 0.0 100631
24 мая, вт
вт2400:00+7сз41156100 0.0 1006607
03:00+6ссз41161100 0.0 1007632
06:00+6ссз5963100 0.0 1008888
09:00+7ссз585491 0.0 10091157
12:00+7с5861100 0.0 10111389
15:00+8с4862100 0.1 10121346
18:00+8ссв3763100 0.0 10141183
21:00+5ссв2277100 0.0 101639